Voltar ao catálogo

COSMOS 2401 DEB

LostPO
NORAD 29421·DEBRIS·🇷🇺 Russia

Lançado Aug 19, 2003 de Plesetsk Cosmodrome

Loading…

Próximas Passagens (próximas 24 horas)

TLE

ObsoletoSource: Space-Track

Época: May 20, 2014, 04:55 UTC

1 29421U 03037F   14140.20512876  .00000024  00000-0  10000-3 0  9992
2 29421  82.4593 213.2023 0026581 341.5083  18.5566 12.45644210481430

Acompanhe COSMOS 2401 DEB em tempo real com AllMySat

Download on the App Store